Regional Weather Roundup
Issued by NWS Midland/Odessa, TX

Skip options and go directly to product.
Home | Oldest Version | Previous Version | Current Version | All | Graphics & Text | Save Text | Print | Product List | Glossary On

Skip product version selection by date and time.   
573
ASUS44 KMAF 251910
RWRMAF
MIDLAND AREA WEATHER ROUNDUP
NATIONAL WEATHER SERVICE MIDLAND TX
200 PM CDT MON MAY 25 2015

...IN SOUTHWEST TEXAS AND SOUTHEAST NEW MEXICO...

CITY           SKY/WX    TMP DP  RH WIND       PRES   REMARKS
ALPINE         SUNNY     78  24  13 W18       30.07F
ANDREWS        FAIR      73  50  44 E3        29.96S
ARTESIA        MOSUNNY   82  36  18 SE15      29.91F
BIG SPRING     SUNNY     74  57  55 CALM      29.95S
CARLSBAD       SUNNY     84  32  15 SW14G20   29.90S
DRYDEN           N/A     92  19   7 W15G26    29.86F
FORT STOCKTON  SUNNY     83  30  14 W13G25    29.93S
GUAD PASS      SUNNY     75  32  20 W30G37    30.03S
HOBBS          MOSUNNY   73  45  35 SE9       29.96F
MARFA          SUNNY     73  27  17 SW15G23   30.06F
MIDLAND AIRPK  SUNNY     74  53  46 E5        29.94F
MIDLAND INTL   SUNNY     73  51  46 CALM      29.93F
ODESSA         SUNNY     76  46  34 VRB5      29.94F
PECOS          SUNNY     83  34  17 CALM      29.90F
PRESIDIO       FAIR      86  23  10 MISG      29.94F
SEMINOLE       SUNNY     76  48  37 SE5       29.96F
SNYDER         MOSUNNY   69  53  57 N9G17     29.92S
WINK           SUNNY     81  43  26 S7        29.90F
$$
...OTHER STATIONS IN TEXAS...

CITY           SKY/WX    TMP DP  RH WIND       PRES   REMARKS
ABILENE        CLOUDY    61  58  90 NW12      29.87F
AMARILLO       CLOUDY    65  48  54 S15       29.93S
AUSTIN         TSTM      80  73  79 SE17G29   29.79F
BROWNSVILLE    CLOUDY    86  76  71 SE23G29   29.86S
CORPUS CHRISTI CLOUDY    84  76  76 SE23      29.86F
DALLAS FTW     CLOUDY    76  71  85 SE15      29.79F
DEL RIO        NOT AVBL
EL PASO        MOSUNNY   79  29  16 W6G32     29.97S
HOUSTON INT    PTSUNNY   85  72  65 S18G28    29.91F
LUBBOCK        PTSUNNY   65  51  60 E15G24    29.92S
SAN ANGELO     MOSUNNY   69  60  73 NE7       29.91S
SAN ANTONIO    LGT RAIN  82  74  76 S20G28    29.82F
WACO           LGT RAIN  74  71  91 SE14      29.83F
WICHITA FALLS  NOT AVBL
$$
...OTHER LOCATIONS IN NEW MEXICO...

CITY           SKY/WX    TMP DP  RH WIND       PRES   REMARKS
ALAMAGORDO     SUNNY     75  30  19 NW10      29.98F
ALBUQUERQUE    PTSUNNY   68  41  37 W13       29.98F
CANNON AFB     NOT AVBL
CLOVIS         PTSUNNY   72  45  37 S13G21    29.91F
HOLLOMAN AFB   NOT AVBL
ROSWELL        MOSUNNY   78  36  21 VRB7      29.91F
RUIDOSO        MOSUNNY   63  32  31 NW13G20   30.09R
SANTA FE       PTSUNNY   64  36  35 MISG      29.99S
TRUTH OR CONSE PTSUNNY   75  34  22 SW12G24   29.95F
TUCUMCARI      MOSUNNY   76  43  30 S10       29.86F
$$

USA.gov is the U.S. government's official web portal to all federal, state and local government web resources and services.